Find OneWeb SL0286

NORAD ID: 49076 Int'l Des: 2021-075 Owner: ONEWEBN Country: UK Constellation: oneweb operational
LEOCIRCULARPOLARONEWEB_TYPE

リアルタイム位置

3D地球を読み込み中...

OneWeb SL0286について

説明を読み込み中...

次回通過

Passes for default location (London). Set your location on the main map for personalized predictions.

高度履歴

Loading altitude history...

軌道要素

1 49076U 21075B 26123.90102160 -.00000264 00000-0 -76918-3 0 9992
2 49076 87.8977 359.4852 0001782 88.7050 271.4282 13.12442548228750
Epoch: May 3, 2026 • Age: 12 hours

現在のステータス

高度 1215.8 km
速度 7.25 km/s
衛星直下点 19.77°N, 175.11°E
打ち上げ日 Aug 21, 2021
運用期間 4.7 years
タイプ internet

技術仕様

分類 Payload
質量 148.00 kg
乾燥質量 140.00 kg
総質量 148.00 kg
長さ 1.30 m
直径 1.00 m
スパン 5.00 m
形状 Trapezoid+2 pan
製造者 ONEWUS
バスタイプ ARROW
フェーズステータス In Orbit
所有者/国 ONEWEBN/UK

Most Searched